This is the latest recevied weather packets stored in our database for station/object OE3DJB-10. If no packets are shown the sender has not sent any weather packets the latest 10 day(s).
| Time | Temp. | Humidity | Pressure | Rain* | Wind** | Luminosity | Snow |
|---|---|---|---|---|---|---|---|
| 1778284655 | 15° C | 45% | 1022.9 hPa | - | - | - | - |
| 1778283755 | 15.56° C | 45% | 1023 hPa | - | - | - | - |
| 1778282855 | 15.56° C | 45% | 1023 hPa | - | - | - | - |
| 1778281955 | 15.56° C | 44% | 1023 hPa | - | - | - | - |
| 1778281055 | 16.11° C | 44% | 1022.9 hPa | - | - | - | - |
| 1778280155 | 16.11° C | 44% | 1023.1 hPa | - | - | - | - |
| 1778279254 | 16.11° C | 44% | 1023 hPa | - | - | - | - |
| 1778278354 | 16.11° C | 44% | 1022.9 hPa | - | - | - | - |
| 1778277454 | 16.67° C | 44% | 1022.8 hPa | - | - | - | - |
| 1778276554 | 16.67° C | 43% | 1022.6 hPa | - | - | - | - |
| 1778275654 | 16.67° C | 44% | 1022.6 hPa | - | - | - | - |
| 1778274754 | 16.67° C | 44% | 1022.6 hPa | - | - | - | - |
| 1778273854 | 17.22° C | 43% | 1022.5 hPa | - | - | - | - |
| 1778272953 | 17.22° C | 44% | 1022.5 hPa | - | - | - | - |
| 1778272053 | 17.22° C | 43% | 1022.4 hPa | - | - | - | - |
| 1778271153 | 17.22° C | 43% | 1022.3 hPa | - | - | - | - |
| 1778270253 | 17.78° C | 43% | 1022.2 hPa | - | - | - | - |
| 1778269353 | 17.78° C | 43% | 1022 hPa | - | - | - | - |
| 1778268453 | 17.78° C | 43% | 1021.8 hPa | - | - | - | - |
| 1778267553 | 18.33° C | 43% | 1021.7 hPa | - | - | - | - |
| 1778266653 | 18.33° C | 42% | 1021.6 hPa | - | - | - | - |
| 1778265752 | 18.33° C | 42% | 1021.4 hPa | - | - | - | - |
| 1778264852 | 18.89° C | 42% | 1021.1 hPa | - | - | - | - |
| 1778263952 | 18.89° C | 42% | 1020.9 hPa | - | - | - | - |
| 1778263052 | 19.44° C | 41% | 1020.8 hPa | - | - | - | - |
* Rain since midnight (hover to see other rain measurements)
** Current wind speed in m/s (hover to see current wind gust speed)